FGD111 KNUW-KBOI

Flight info

Callsign FGD111
Flight time 1h 27m
Altitude 29000
Route ALPSE DEVLE KYAAN4
Aircraft TBM9/L-SDFGRWY/S

Departure

Time 2026-04-26 01:06
Airport Whidbey Island Naval Air Station (Ault Field) (KNUW)

Arrival

Time 2026-04-26 02:33
Airport Boise Air Terminal/Gowen Field (KBOI)
Time Latitude Longitude Altitude Speed Heading
2026-04-26 01:01 48.33783 -122.65796 34 ft 0 kts 324°
2026-04-26 01:03 48.33839 -122.65870 34 ft 23 kts 321°
2026-04-26 01:04 48.33915 -122.65862 34 ft 12 kts 71°
2026-04-26 01:04 48.33949 -122.65712 34 ft 22 kts 66°
2026-04-26 01:04 48.34050 -122.65416 35 ft 35 kts 66°
2026-04-26 01:04 48.34152 -122.65082 35 ft 35 kts 65°
2026-04-26 01:05 48.34307 -122.64947 34 ft 32 kts 331°
2026-04-26 01:05 48.34620 -122.65160 33 ft 76 kts 335°
2026-04-26 01:05 48.35195 -122.65569 250 ft 100 kts 332°
2026-04-26 01:05 48.35876 -122.66022 617 ft 116 kts 332°
2026-04-26 01:06 48.36563 -122.65471 1150 ft 138 kts 76°
2026-04-26 01:06 48.36073 -122.64325 1653 ft 151 kts 152°
2026-04-26 01:06 48.35057 -122.63479 1791 ft 183 kts 153°
2026-04-26 01:06 48.34500 -122.63037 1838 ft 186 kts 155°
2026-04-26 01:07 48.34330 -122.62905 1885 ft 185 kts 155°
2026-04-26 01:07 48.33204 -122.62095 2236 ft 173 kts 156°
2026-04-26 01:07 48.32223 -122.61435 2134 ft 129 kts 164°
2026-04-26 01:08 48.31614 -122.61893 1727 ft 105 kts 256°
2026-04-26 01:08 48.31636 -122.62935 1568 ft 107 kts 296°
2026-04-26 01:08 48.32187 -122.63806 1432 ft 128 kts 323°
2026-04-26 01:08 48.32918 -122.64648 1601 ft 131 kts 324°
2026-04-26 01:09 48.33706 -122.65192 1962 ft 123 kts 356°
2026-04-26 01:09 48.34360 -122.64604 2519 ft 122 kts 66°
2026-04-26 01:09 48.34340 -122.63207 2869 ft 147 kts 98°
2026-04-26 01:09 48.33927 -122.61691 3268 ft 165 kts 110°
2026-04-26 01:10 48.33410 -122.60092 3728 ft 174 kts 110°
2026-04-26 01:10 48.32866 -122.58420 4198 ft 181 kts 112°
2026-04-26 01:10 48.32309 -122.56706 4677 ft 184 kts 111°
2026-04-26 01:10 48.31747 -122.54950 5141 ft 189 kts 111°
2026-04-26 01:11 48.31169 -122.53154 5606 ft 193 kts 111°
2026-04-26 01:11 48.30580 -122.51324 6076 ft 196 kts 111°
2026-04-26 01:11 48.29986 -122.49474 6539 ft 198 kts 111°
2026-04-26 01:11 48.29385 -122.47606 6983 ft 199 kts 112°
2026-04-26 01:12 48.28781 -122.45726 7438 ft 200 kts 111°
2026-04-26 01:12 48.28173 -122.43837 7900 ft 201 kts 111°
2026-04-26 01:12 48.27561 -122.41941 8364 ft 202 kts 111°
2026-04-26 01:12 48.26947 -122.40036 8834 ft 203 kts 112°
2026-04-26 01:13 48.26329 -122.38120 9301 ft 204 kts 112°
2026-04-26 01:13 48.25709 -122.36195 9788 ft 205 kts 112°
2026-04-26 01:13 48.25084 -122.34263 10229 ft 206 kts 112°
2026-04-26 01:13 48.24456 -122.32323 10678 ft 207 kts 112°
2026-04-26 01:14 48.23825 -122.30376 11128 ft 207 kts 111°
2026-04-26 01:14 48.23204 -122.28459 11582 ft 206 kts 111°
2026-04-26 01:14 48.22576 -122.26523 12046 ft 207 kts 110°
2026-04-26 01:14 48.21956 -122.24599 12511 ft 204 kts 110°
2026-04-26 01:15 48.21336 -122.22691 12994 ft 204 kts 110°
2026-04-26 01:15 48.20713 -122.20783 13485 ft 204 kts 109°
2026-04-26 01:15 48.20091 -122.18869 13940 ft 204 kts 110°
2026-04-26 01:15 48.19472 -122.16961 14376 ft 203 kts 109°
2026-04-26 01:16 48.18852 -122.15055 14815 ft 204 kts 109°
2026-04-26 01:16 48.18229 -122.13144 15260 ft 204 kts 109°
2026-04-26 01:16 48.17602 -122.11222 15713 ft 205 kts 109°
2026-04-26 01:16 48.16972 -122.09303 16173 ft 206 kts 111°
2026-04-26 01:17 48.16089 -122.07561 16654 ft 215 kts 130°
2026-04-26 01:17 48.14982 -122.06083 17122 ft 217 kts 132°
2026-04-26 01:17 48.13864 -122.04566 17604 ft 217 kts 132°
2026-04-26 01:17 48.12740 -122.03044 18093 ft 218 kts 132°
2026-04-26 01:18 48.11608 -122.01521 18537 ft 218 kts 132°
2026-04-26 01:18 48.10478 -122.00001 18966 ft 218 kts 133°
2026-04-26 01:18 48.09350 -121.98482 19402 ft 218 kts 133°
2026-04-26 01:18 48.08217 -121.96959 19843 ft 219 kts 133°
2026-04-26 01:19 48.07086 -121.95439 20290 ft 218 kts 133°
2026-04-26 01:19 48.05958 -121.93923 20745 ft 218 kts 134°
2026-04-26 01:19 48.04830 -121.92409 21206 ft 217 kts 134°
2026-04-26 01:19 48.03706 -121.90902 21674 ft 217 kts 134°
2026-04-26 01:20 48.02587 -121.89401 22155 ft 216 kts 134°
2026-04-26 01:20 48.01471 -121.87905 22634 ft 215 kts 135°
2026-04-26 01:20 48.00357 -121.86414 23128 ft 215 kts 135°
2026-04-26 01:20 47.99265 -121.84951 23592 ft 213 kts 135°
2026-04-26 01:21 47.98163 -121.83478 24007 ft 212 kts 135°
2026-04-26 01:21 47.97072 -121.82018 24430 ft 210 kts 135°
2026-04-26 01:21 47.95990 -121.80572 24852 ft 208 kts 135°
2026-04-26 01:21 47.94918 -121.79140 25286 ft 206 kts 136°
2026-04-26 01:22 47.93854 -121.77720 25726 ft 204 kts 136°
2026-04-26 01:22 47.92804 -121.76318 26172 ft 202 kts 136°
2026-04-26 01:22 47.91764 -121.74932 26621 ft 199 kts 136°
2026-04-26 01:22 47.90742 -121.73567 27079 ft 196 kts 136°
2026-04-26 01:23 47.89733 -121.72223 27543 ft 193 kts 136°
2026-04-26 01:23 47.88746 -121.70908 28013 ft 188 kts 136°
2026-04-26 01:23 47.87783 -121.69626 28486 ft 183 kts 136°
2026-04-26 01:23 47.86847 -121.68377 28893 ft 182 kts 136°
2026-04-26 01:24 47.85843 -121.67048 28902 ft 204 kts 137°
2026-04-26 01:24 47.84725 -121.65583 28915 ft 224 kts 137°
2026-04-26 01:24 47.83510 -121.63978 28914 ft 243 kts 137°
2026-04-26 01:24 47.82202 -121.62242 28913 ft 260 kts 137°
2026-04-26 01:25 47.80831 -121.60426 28911 ft 275 kts 137°
2026-04-26 01:25 47.79365 -121.58492 28903 ft 287 kts 137°
2026-04-26 01:25 47.77844 -121.56482 28911 ft 297 kts 137°
2026-04-26 01:25 47.76277 -121.54413 28910 ft 305 kts 137°
2026-04-26 01:26 47.73046 -121.50149 28905 ft 316 kts 137°
2026-04-26 01:26 47.69715 -121.45760 28903 ft 323 kts 137°
2026-04-26 01:27 47.66321 -121.41298 28904 ft 328 kts 137°
2026-04-26 01:27 47.62888 -121.36790 28899 ft 331 kts 137°
2026-04-26 01:28 47.59428 -121.32258 28902 ft 332 kts 137°
2026-04-26 01:28 47.55982 -121.27749 28898 ft 333 kts 137°
2026-04-26 01:29 47.52504 -121.23207 28895 ft 333 kts 138°
2026-04-26 01:29 47.49027 -121.18677 28886 ft 333 kts 137°
2026-04-26 01:30 47.45547 -121.14146 28880 ft 333 kts 138°
2026-04-26 01:30 47.42064 -121.09628 28882 ft 333 kts 138°
2026-04-26 01:31 47.38594 -121.05126 28885 ft 332 kts 138°
2026-04-26 01:31 47.35116 -121.00629 28881 ft 332 kts 138°
2026-04-26 01:32 47.31643 -120.96143 28873 ft 332 kts 138°
2026-04-26 01:32 47.28192 -120.91693 28872 ft 332 kts 138°
2026-04-26 01:33 47.24710 -120.87214 28874 ft 332 kts 138°
2026-04-26 01:33 47.21225 -120.82738 28876 ft 332 kts 138°
2026-04-26 01:34 47.17741 -120.78270 28875 ft 332 kts 138°
2026-04-26 01:34 47.14256 -120.73809 28875 ft 332 kts 138°
2026-04-26 01:35 47.10769 -120.69354 28862 ft 332 kts 138°
2026-04-26 01:35 47.07299 -120.64929 28868 ft 332 kts 138°
2026-04-26 01:36 47.03812 -120.60490 28878 ft 332 kts 138°
2026-04-26 01:37 46.98569 -120.53832 28868 ft 332 kts 138°
2026-04-26 01:37 46.95075 -120.49405 28859 ft 332 kts 138°
2026-04-26 01:38 46.91579 -120.44981 28859 ft 332 kts 138°
2026-04-26 01:38 46.88081 -120.40565 28856 ft 332 kts 138°
2026-04-26 01:39 46.84598 -120.36175 28854 ft 332 kts 138°
2026-04-26 01:39 46.81098 -120.31771 28849 ft 332 kts 138°
2026-04-26 01:40 46.77595 -120.27371 28861 ft 332 kts 138°
2026-04-26 01:40 46.74089 -120.22976 28859 ft 332 kts 139°
2026-04-26 01:41 46.70585 -120.18592 28872 ft 331 kts 138°
2026-04-26 01:41 46.67083 -120.14216 28873 ft 331 kts 138°
2026-04-26 01:42 46.63583 -120.09852 28867 ft 331 kts 139°
2026-04-26 01:42 46.60105 -120.05523 28869 ft 331 kts 139°
2026-04-26 01:43 46.56600 -120.01166 28865 ft 332 kts 139°
2026-04-26 01:43 46.53100 -119.96825 28869 ft 331 kts 138°
2026-04-26 01:44 46.49599 -119.92490 28861 ft 331 kts 138°
2026-04-26 01:44 46.46099 -119.88163 28859 ft 331 kts 138°
2026-04-26 01:45 46.43161 -119.84536 28858 ft 331 kts 138°
2026-04-26 01:45 46.39658 -119.80221 28857 ft 331 kts 138°
2026-04-26 01:46 46.36166 -119.75926 28869 ft 328 kts 138°
2026-04-26 01:46 46.32694 -119.71687 28895 ft 328 kts 140°
2026-04-26 01:47 46.29141 -119.67541 28848 ft 327 kts 136°
2026-04-26 01:47 46.25768 -119.63092 28870 ft 329 kts 139°
2026-04-26 01:48 46.22232 -119.58893 28872 ft 329 kts 138°
2026-04-26 01:48 46.18759 -119.54615 28872 ft 328 kts 138°
2026-04-26 01:49 46.15263 -119.50372 28873 ft 328 kts 139°
2026-04-26 01:49 46.11772 -119.46128 28872 ft 328 kts 139°
2026-04-26 01:50 46.08278 -119.41889 28868 ft 328 kts 139°
2026-04-26 01:50 46.04783 -119.37656 28873 ft 328 kts 138°
2026-04-26 01:51 46.01299 -119.33445 28874 ft 327 kts 138°
2026-04-26 01:51 45.97834 -119.29262 28871 ft 327 kts 138°
2026-04-26 01:52 45.94343 -119.25056 28870 ft 327 kts 139°
2026-04-26 01:52 45.90850 -119.20855 28868 ft 327 kts 139°
2026-04-26 01:53 45.87353 -119.16656 28877 ft 326 kts 138°
2026-04-26 01:53 45.83896 -119.12510 28874 ft 326 kts 138°
2026-04-26 01:54 45.80418 -119.08348 28871 ft 326 kts 138°
2026-04-26 01:54 45.76939 -119.04191 28869 ft 326 kts 138°
2026-04-26 01:55 45.73451 -119.00031 28867 ft 326 kts 139°
2026-04-26 01:55 45.69976 -118.95894 28891 ft 323 kts 138°
2026-04-26 01:56 45.66521 -118.91786 28892 ft 323 kts 138°
2026-04-26 01:56 45.63107 -118.87734 28892 ft 323 kts 138°
2026-04-26 01:57 45.59659 -118.83649 28897 ft 323 kts 138°
2026-04-26 01:57 45.56219 -118.79579 28896 ft 323 kts 138°
2026-04-26 01:58 45.52758 -118.75493 28894 ft 322 kts 139°
2026-04-26 01:58 45.49301 -118.71416 28898 ft 322 kts 139°
2026-04-26 01:59 45.45840 -118.67343 28898 ft 322 kts 139°
2026-04-26 01:59 45.42381 -118.63277 28907 ft 323 kts 139°
2026-04-26 02:00 45.38909 -118.59231 28935 ft 323 kts 140°
2026-04-26 02:00 45.35450 -118.55170 28927 ft 322 kts 137°
2026-04-26 02:01 45.32005 -118.51110 28927 ft 322 kts 139°
2026-04-26 02:01 45.28537 -118.47082 28925 ft 322 kts 139°
2026-04-26 02:02 45.25050 -118.43088 28930 ft 323 kts 144°
2026-04-26 02:02 45.21433 -118.39338 28922 ft 321 kts 136°
2026-04-26 02:03 45.18144 -118.35107 28924 ft 322 kts 138°
2026-04-26 02:03 45.14636 -118.31153 28918 ft 322 kts 139°
2026-04-26 02:04 45.11185 -118.27109 28915 ft 322 kts 139°
2026-04-26 02:04 45.07713 -118.23098 28913 ft 322 kts 139°
2026-04-26 02:05 45.04245 -118.19084 28910 ft 322 kts 140°
2026-04-26 02:05 45.00776 -118.15079 28908 ft 322 kts 140°
2026-04-26 02:06 44.97308 -118.11082 28880 ft 322 kts 139°
2026-04-26 02:06 44.93835 -118.07084 28873 ft 322 kts 140°
2026-04-26 02:07 44.90366 -118.03094 28863 ft 322 kts 139°
2026-04-26 02:07 44.86891 -117.99118 28863 ft 322 kts 140°
2026-04-26 02:08 44.83414 -117.95126 28854 ft 322 kts 140°
2026-04-26 02:08 44.79957 -117.91174 28850 ft 322 kts 140°
2026-04-26 02:09 44.76466 -117.87190 28849 ft 322 kts 140°
2026-04-26 02:09 44.72974 -117.83209 28509 ft 325 kts 140°
2026-04-26 02:09 44.71210 -117.81198 28092 ft 327 kts 141°
2026-04-26 02:10 44.69434 -117.79163 27658 ft 330 kts 142°
2026-04-26 02:10 44.67638 -117.77146 27223 ft 330 kts 143°
2026-04-26 02:10 44.65842 -117.75119 26787 ft 331 kts 142°
2026-04-26 02:10 44.64047 -117.73071 26349 ft 333 kts 142°
2026-04-26 02:11 44.62251 -117.71027 25914 ft 332 kts 142°
2026-04-26 02:11 44.60452 -117.68994 25476 ft 332 kts 142°
2026-04-26 02:11 44.58672 -117.66984 25045 ft 333 kts 142°
2026-04-26 02:11 44.56872 -117.64947 24606 ft 333 kts 142°
2026-04-26 02:12 44.55059 -117.62897 24165 ft 334 kts 142°
2026-04-26 02:12 44.53244 -117.60856 23727 ft 335 kts 143°
2026-04-26 02:12 44.51430 -117.58806 23257 ft 335 kts 143°
2026-04-26 02:12 44.49618 -117.56758 22800 ft 335 kts 143°
2026-04-26 02:13 44.47795 -117.54707 22352 ft 336 kts 143°
2026-04-26 02:13 44.45972 -117.52660 21908 ft 336 kts 143°
2026-04-26 02:13 44.44147 -117.50608 21462 ft 336 kts 143°
2026-04-26 02:13 44.42322 -117.48558 21020 ft 337 kts 143°
2026-04-26 02:14 44.40514 -117.46530 20580 ft 337 kts 143°
2026-04-26 02:14 44.38682 -117.44477 20134 ft 338 kts 143°
2026-04-26 02:14 44.36852 -117.42417 19685 ft 338 kts 145°
2026-04-26 02:14 44.35019 -117.40363 19241 ft 338 kts 146°
2026-04-26 02:15 44.33185 -117.38315 18793 ft 337 kts 145°
2026-04-26 02:15 44.31355 -117.36268 18350 ft 337 kts 145°
2026-04-26 02:15 44.29525 -117.34233 17867 ft 335 kts 146°
2026-04-26 02:15 44.27658 -117.32299 17419 ft 332 kts 147°
2026-04-26 02:16 44.25871 -117.30261 17036 ft 329 kts 144°
2026-04-26 02:16 44.24194 -117.28345 16606 ft 328 kts 145°
2026-04-26 02:16 44.24185 -117.28335 16604 ft 328 kts 145°
2026-04-26 02:16 44.22414 -117.26307 16138 ft 329 kts 144°
2026-04-26 02:17 44.20670 -117.24252 15708 ft 329 kts 142°
2026-04-26 02:17 44.19000 -117.22078 15305 ft 327 kts 140°
2026-04-26 02:17 44.17373 -117.19913 14906 ft 320 kts 140°
2026-04-26 02:17 44.15768 -117.17805 14487 ft 315 kts 141°
2026-04-26 02:18 44.14175 -117.15726 14093 ft 312 kts 141°
2026-04-26 02:18 44.12594 -117.13659 13703 ft 310 kts 140°
2026-04-26 02:18 44.11047 -117.11630 13297 ft 308 kts 140°
2026-04-26 02:18 44.09491 -117.09591 12904 ft 306 kts 140°
2026-04-26 02:19 44.07942 -117.07563 12526 ft 303 kts 140°
2026-04-26 02:19 44.06399 -117.05578 12138 ft 301 kts 140°
2026-04-26 02:19 44.04881 -117.03596 11774 ft 298 kts 140°
2026-04-26 02:19 44.03376 -117.01620 11405 ft 297 kts 140°
2026-04-26 02:20 44.01875 -116.99668 11039 ft 295 kts 140°
2026-04-26 02:20 44.00375 -116.97721 10672 ft 294 kts 139°
2026-04-26 02:20 43.98888 -116.95786 10308 ft 292 kts 139°
2026-04-26 02:20 43.97411 -116.93863 9946 ft 290 kts 139°
2026-04-26 02:21 43.96165 -116.91700 9822 ft 283 kts 124°
2026-04-26 02:21 43.95118 -116.89433 9781 ft 276 kts 126°
2026-04-26 02:21 43.94036 -116.87257 9660 ft 273 kts 127°
2026-04-26 02:21 43.92977 -116.85116 9502 ft 272 kts 126°
2026-04-26 02:22 43.91924 -116.82938 9331 ft 272 kts 126°
2026-04-26 02:22 43.90867 -116.80755 9160 ft 272 kts 126°
2026-04-26 02:22 43.89808 -116.78577 8986 ft 273 kts 126°
2026-04-26 02:22 43.88747 -116.76396 8811 ft 273 kts 126°
2026-04-26 02:23 43.87686 -116.74216 8631 ft 273 kts 126°
2026-04-26 02:23 43.86624 -116.72034 8450 ft 273 kts 126°
2026-04-26 02:23 43.85562 -116.69855 8268 ft 273 kts 126°
2026-04-26 02:23 43.84501 -116.67678 8088 ft 273 kts 126°
2026-04-26 02:24 43.83439 -116.65500 7905 ft 272 kts 125°
2026-04-26 02:24 43.82382 -116.63346 7842 ft 267 kts 125°
2026-04-26 02:24 43.81344 -116.61237 7843 ft 263 kts 126°
2026-04-26 02:24 43.80315 -116.59164 7835 ft 261 kts 126°
2026-04-26 02:25 43.79293 -116.57144 7835 ft 258 kts 130°
2026-04-26 02:25 43.77871 -116.55691 7858 ft 254 kts 161°
2026-04-26 02:25 43.76153 -116.55512 7842 ft 247 kts 195°
2026-04-26 02:25 43.74670 -116.56598 7843 ft 242 kts 227°
2026-04-26 02:26 43.73470 -116.58218 7824 ft 243 kts 216°
2026-04-26 02:26 43.71857 -116.58916 7822 ft 248 kts 186°
2026-04-26 02:26 43.70175 -116.58403 7821 ft 253 kts 155°
2026-04-26 02:26 43.68860 -116.56786 7820 ft 257 kts 126°
2026-04-26 02:27 43.68176 -116.54512 7826 ft 259 kts 107°
2026-04-26 02:27 43.67740 -116.52101 7839 ft 259 kts 104°
2026-04-26 02:27 43.67336 -116.49714 7832 ft 258 kts 104°
2026-04-26 02:27 43.66938 -116.47287 7829 ft 259 kts 104°
2026-04-26 02:28 43.66541 -116.44862 7832 ft 259 kts 104°
2026-04-26 02:28 43.66145 -116.42431 7824 ft 259 kts 104°
2026-04-26 02:28 43.65743 -116.40008 7823 ft 259 kts 104°
2026-04-26 02:28 43.65340 -116.37583 7823 ft 259 kts 104°
2026-04-26 02:29 43.64929 -116.35165 7822 ft 258 kts 106°
2026-04-26 02:29 43.64243 -116.32861 7565 ft 267 kts 117°
2026-04-26 02:29 43.63398 -116.30548 7316 ft 272 kts 118°
2026-04-26 02:29 43.62472 -116.28238 6854 ft 278 kts 121°
2026-04-26 02:30 43.61488 -116.25957 6584 ft 275 kts 120°
2026-04-26 02:30 43.60517 -116.23670 5998 ft 269 kts 120°
2026-04-26 02:30 43.59610 -116.21550 5143 ft 244 kts 121°
2026-04-26 02:30 43.58801 -116.19640 4896 ft 222 kts 120°
2026-04-26 02:31 43.58001 -116.17849 4432 ft 221 kts 120°
2026-04-26 02:31 43.57071 -116.16358 4581 ft 193 kts 156°
2026-04-26 02:31 43.56210 -116.16302 4448 ft 184 kts 202°
2026-04-26 02:31 43.55173 -116.17132 3954 ft 154 kts 219°
2026-04-26 02:32 43.54918 -116.18196 3752 ft 116 kts 283°
2026-04-26 02:32 43.55260 -116.19253 3279 ft 119 kts 313°
2026-04-26 02:32 43.55612 -116.20228 3033 ft 106 kts 300°
2026-04-26 02:32 43.55913 -116.21081 2882 ft 88 kts 300°
2026-04-26 02:33 43.56143 -116.21738 2858 ft 65 kts 296°
2026-04-26 02:33 43.56324 -116.22276 2848 ft 41 kts 296°
2026-04-26 02:33 43.56432 -116.22421 2849 ft 15 kts 358°
2026-04-26 02:33 43.56553 -116.22415 2846 ft 22 kts
2026-04-26 02:34 43.56677 -116.22332 2847 ft 23 kts 104°
2026-04-26 02:34 43.56609 -116.22120 2849 ft 24 kts 117°
2026-04-26 02:34 43.56534 -116.21903 2850 ft 26 kts 114°
2026-04-26 02:34 43.56457 -116.21679 2854 ft 26 kts 115°
2026-04-26 02:35 43.56404 -116.21474 2858 ft 9 kts 51°
2026-04-26 02:35 43.56457 -116.21488 2856 ft 12 kts 302°
2026-04-26 02:35 43.56486 -116.21491 2857 ft 0 kts 14°